Weather in Davydovo

Russia / Oryol Oblast     52°44′19″N   37°33′47″E
temp.,
°C
wind,
m/s
gust,
m/s
humid.,
%
clouds,
%
prec.,
mm/h
press.,
hPa
HPBL,
m
13 may, thu
thu1300:00+7e499390 0.0 1017190
03:00+9ese5119096 0.0 1017385
06:00+8ese5119285 0.0 1016368
09:00+8ese4797100 3.9 1016317
12:00+12se71085100 3.9 1016710
15:00+14s677999 4.1 1015955
18:00+14s4678100 0.1 1015724
21:00+11se349216 0.1 101546
14 may, fri
fri1400:00+10se3493100 0.0 101658
03:00+10se339371 0.0 101644
06:00+11ese3794100 0.0 1015153
09:00+16se5881100 0.1 1014420
12:00+20se7107025 0.1 10131012
15:00+22sse71170100 1.1 10121397
18:00+20s71377100 1.1 1011647
21:00+15sse3790100 1.1 1011113
15 may, sat
sat1500:00+16s3392100 1.6 100944
03:00+15se3496100 8.1 101083
06:00+15sse3599100 0.8 1010150
09:00+17ssw4682100 0.8 1011323
12:00+21ssw5768100 0.9 10111211
15:00+21ssw57609 1.7 10111530
18:00+19sw367497 0.7 1011553
21:00+15sw338620 0.8 101243
16 may, sun
sun1600:00+13ssw34925 0.0 101353
03:00+12ssw34930 0.0 101376
06:00+12sw36938 0.0 1014167
09:00+16sw34750 0.0 1014587
12:00+20sw34605 0.0 10151105
15:00+21sw235433 0.0 10141417
18:00+21ene116177 0.0 1013794
21:00+16ne457469 0.0 101358
17 may, mon
mon1700:00+14ne4118181 0.0 1013188
03:00+15ene6158425 0.0 1012320
06:00+15ene614885 0.0 1011331
09:00+19ese61075100 0.0 1010396
12:00+24ese713596 0.0 10091117
15:00+25ese71357100 0.0 10091294
18:00+22ese71467100 0.0 1008631
21:00+19ese6157667 0.0 1008353